GFSNW_925_temp_324.txt.gz
Temp
9 9 9 9 9 10 10 14 17 11 12 18 18 19 19 16 21 22 22 22 23 23 23 24 25 25 25 23 25 26 27 28 27 27 25 26 28 28 27 26 26 25 24 26
9 9 9 9 8 10 12 16 15 12 12 18 18 17 19 20 21 22 22 22 22 22 23 23 23 23 23 22 23 25 26 27 26 26 25 25 25 26 26 26 24 25 25 27
9 9 9 9 10 10 11 16 14 14 15 16 18 18 18 19 20 20 21 21 22 22 22 22 22 22 23 22 23 15 21 26 26 27 28 27 25 25 26 25 25 26 25 27
9 9 9 9 9 9 11 15 15 16 14 16 17 18 18 19 19 20 21 22 22 22 21 22 22 22 23 24 18 22 23 24 25 26 25 24 26 26 25 25 26 25 27 25
9 9 9 8 8 8 12 14 15 15 15 16 16 15 17 18 19 20 20 21 22 21 21 22 21 23 23 23 23 22 22 23 22 24 23 23 24 25 25 25 26 25 25 24
9 9 9 8 9 9 12 12 12 16 12 15 15 16 17 18 19 19 20 20 21 21 21 20 20 20 21 21 21 21 21 22 22 23 21 22 23 24 25 24 24 24 23 25
8 9 9 9 9 9 11 12 14 16 14 17 17 15 17 17 18 18 19 19 20 19 19 21 20 20 20 20 20 20 21 21 20 22 21 20 25 21 22 24 23 23 22 21
8 8 9 9 9 10 10 10 13 16 15 16 15 16 16 17 17 17 18 19 20 20 20 20 20 20 20 21 21 21 19 19 20 19 21 24 25 21 21 22 22 22 21 17
7 8 8 9 8 9 9 9 10 14 15 15 15 16 16 17 17 17 17 18 17 19 20 19 15 19 21 22 21 21 20 20 19 17 19 21 22 21 21 21 23 20 19 17
7 8 8 9 8 8 9 9 10 13 13 14 14 16 16 15 16 17 17 17 18 18 19 19 18 19 20 20 21 21 21 21 19 20 18 21 21 21 20 21 22 18 19 17
7 7 8 9 9 8 9 9 9 11 13 13 12 13 14 14 16 16 16 17 17 18 18 19 18 19 20 19 21 20 20 18 18 18 19 19 20 20 20 19 17 17 17 16
7 7 7 8 8 8 8 9 8 9 12 12 10 11 11 13 14 15 15 15 16 17 17 18 18 18 18 19 18 19 19 20 19 18 19 19 19 18 18 17 17 16 17 14
7 7 7 7 7 7 8 8 8 9 11 12 12 13 12 10 11 12 15 15 14 15 14 16 17 16 18 18 19 18 18 16 18 17 18 16 15 16 15 15 16 16 15 12
6 7 7 7 6 7 8 9 8 9 10 9 11 9 10 10 10 11 12 13 12 12 14 13 11 13 17 17 18 17 18 16 16 15 16 15 16 16 15 13 13 12 12 12
6 6 7 7 7 7 7 8 8 8 11 9 12 11 11 10 10 10 11 11 12 14 13 8 11 16 15 14 15 16 16 14 12 12 14 14 16 16 14 13 13 13 12 11
6 6 7 7 7 6 7 7 8 7 9 11 11 11 11 10 10 10 11 11 12 13 13 14 15 14 15 15 16 19 16 14 15 14 13 12 12 13 14 13 13 12 11 10
6 6 6 6 6 6 7 8 8 7 9 8 10 12 11 10 11 11 11 9 10 12 13 12 15 15 14 15 16 18 15 15 13 12 13 13 11 11 10 9 9 9 9 9
5 5 6 6 6 7 7 6 6 7 9 10 8 10 11 10 11 11 11 10 9 11 13 12 14 14 14 13 18 16 14 13 12 12 11 11 9 7 7 7 7 8 7 6
5 5 5 6 6 6 6 7 6 7 9 9 7 10 11 11 10 10 11 12 10 11 11 13 13 14 13 17 18 16 14 14 11 10 9 8 7 7 8 9 8 7 5 4
5 5 6 3 6 7 8 7 5 5 8 8 7 10 11 11 10 9 9 10 12 11 14 12 12 15 16 14 13 15 12 10 10 6 7 8 8 8 8 8 7 6 4 3
5 5 4 5 7 8 9 7 7 7 6 6 7 12 11 10 11 11 10 9 11 11 14 13 14 15 15 12 11 10 8 9 9 8 9 9 9 8 7 6 4 3 1 -0
5 6 5 5 8 5 6 6 6 6 9 8 7 10 12 10 9 8 6 8 7 10 11 11 13 15 10 9 8 8 8 7 7 7 5 7 7 7 6 4 1 -0 -1 -1
7 6 4 6 5 6 7 7 7 7 8 8 9 8 9 10 11 9 7 8 10 7 9 12 15 10 9 8 6 5 5 4 4 2 1 2 1 2 1 -0 -0 -1 -1 -1
6 5 6 6 6 8 10 11 11 10 10 10 10 9 10 10 10 8 9 10 9 9 9 13 13 8 6 5 4 4 2 2 1 0 0 -0 -0 -1 -0 -0 -0 -0 -2 -2
5 7 8 7 10 9 10 11 10 10 12 11 10 10 11 10 8 10 9 8 9 12 13 11 6 4 4 3 3 3 2 1 1 0 -0 -1 -1 -1 -2 -2 -1 -1 -1 -2
5 6 7 8 8 7 7 9 9 9 10 11 12 10 10 10 10 8 9 11 13 13 8 5 4 4 3 3 3 2 2 2 1 1 0 -0 -1 -0 -1 -2 -2 -2 -2 -3
4 5 7 8 9 9 7 9 9 9 11 11 11 9 11 10 9 10 12 12 9 5 4 4 4 4 4 2 1 1 1 1 1 1 0 -0 -0 -0 -0 -0 -2 -2 -3 -3

GFSNW_925_temp_327.txt.gz
Temp
9 9 9 9 10 10 10 17 19 15 14 20 23 23 25 18 25 25 25 26 26 26 26 27 28 27 26 26 27 28 30 29 28 30 31 30 30 30 30 28 28 29 28 28
9 9 9 9 10 12 16 19 19 15 15 21 22 23 22 23 24 25 25 25 25 25 25 25 25 25 25 25 26 25 25 28 27 28 30 29 28 30 30 30 29 27 27 28
9 9 9 9 10 11 11 19 17 17 18 21 22 22 21 22 23 24 24 25 25 25 25 25 24 25 25 25 25 17 22 26 27 27 29 30 28 29 29 29 27 27 28 29
9 9 9 9 10 10 10 19 19 19 18 19 21 22 22 22 22 23 24 24 24 25 24 24 24 25 25 26 20 24 25 24 26 27 28 28 27 28 29 28 28 27 28 29
9 9 9 9 10 10 12 18 18 18 20 20 20 18 21 22 23 23 23 23 24 25 24 24 24 24 24 25 25 25 25 24 25 25 27 27 26 27 28 28 28 28 28 28
9 9 9 10 10 10 15 16 17 19 16 19 19 20 21 21 22 22 23 23 23 23 23 23 23 23 23 24 23 24 24 23 24 23 27 25 24 27 27 28 29 28 26 27
9 9 9 9 9 10 13 16 18 19 18 20 20 19 20 20 21 21 22 22 22 21 22 23 23 23 24 23 24 24 24 24 23 22 24 19 26 27 26 25 27 27 25 24
8 9 9 9 9 10 13 14 16 19 18 21 19 19 19 20 20 20 21 21 22 21 21 22 22 22 23 23 24 24 24 24 22 19 21 24 26 24 24 24 25 27 25 22
8 9 9 9 9 10 12 13 13 17 18 19 20 19 19 19 19 19 19 21 20 20 21 21 15 19 23 23 23 24 23 24 23 18 16 20 23 23 23 23 22 23 22 19
8 8 9 9 8 10 12 13 11 15 16 17 18 18 19 19 20 21 20 20 19 20 21 20 20 20 23 21 22 23 23 23 22 22 21 22 25 23 23 22 20 21 21 20
7 8 9 9 9 9 11 12 11 14 16 16 16 17 18 18 19 20 19 19 19 20 20 21 20 20 22 22 23 23 22 22 20 21 20 18 22 23 21 20 21 20 19 15
7 8 8 9 9 10 10 12 11 12 15 14 13 14 14 14 15 17 18 18 19 20 20 21 21 21 21 22 21 22 21 22 20 21 22 22 21 20 19 19 19 18 17 14
7 7 8 8 9 9 10 12 12 13 15 14 15 16 15 13 13 14 17 18 17 17 17 18 19 17 21 20 21 21 22 21 20 20 21 19 19 19 19 18 17 15 15 14
7 7 7 7 8 8 9 11 12 13 14 11 13 13 14 14 13 14 14 15 15 16 17 15 13 15 20 19 20 20 22 20 20 19 20 19 19 17 16 16 15 16 15 14
7 7 7 7 7 8 8 9 11 12 13 10 13 14 14 13 13 13 14 14 15 17 16 11 12 18 18 19 18 19 22 20 19 19 19 17 17 16 17 16 16 15 14 13
7 6 6 6 7 8 9 9 10 10 11 12 13 14 14 13 13 13 14 14 15 16 14 15 17 19 18 17 17 21 22 21 20 18 16 16 15 15 15 15 14 14 13 13
7 6 6 6 7 7 8 9 9 10 10 10 10 13 14 13 14 14 12 12 13 14 13 14 17 18 16 17 17 20 22 20 19 18 16 15 14 14 13 12 11 11 11 10
6 6 6 6 6 7 8 7 8 9 10 11 10 12 13 13 13 13 14 10 10 11 13 14 16 17 17 15 19 21 20 18 17 16 16 15 13 11 10 10 10 10 9 9
6 6 6 6 7 8 7 6 7 8 10 10 11 13 11 14 13 13 14 12 11 13 13 15 16 16 15 17 20 21 19 17 16 15 14 12 10 9 10 10 11 10 9 7
6 6 6 4 6 8 8 7 8 8 10 11 11 14 12 13 13 12 12 13 13 12 15 16 14 16 19 20 19 19 18 16 14 11 12 11 11 11 11 11 11 9 7 5
6 6 7 7 8 9 10 8 8 7 7 8 11 14 13 13 12 12 14 11 12 13 14 15 15 17 19 20 16 16 16 14 11 12 11 12 12 11 9 8 7 6 4 1
6 7 6 6 9 7 9 8 9 9 11 11 9 12 14 12 13 13 10 10 9 11 12 13 14 17 15 14 13 13 12 12 11 10 8 11 11 10 9 7 4 1 0 -1
8 6 7 9 8 7 7 7 7 9 11 11 11 11 11 12 14 11 9 9 9 9 10 13 17 14 13 12 11 10 10 9 7 4 2 3 2 3 1 0 -0 -1 -1 -1
8 5 6 7 6 9 10 13 12 12 13 13 11 11 12 12 12 10 9 12 11 10 10 14 17 12 9 8 8 8 7 5 3 1 1 0 0 -1 -0 -1 -1 -0 -1 -1
8 10 8 9 12 13 13 15 14 14 15 13 11 12 13 12 10 11 11 10 10 12 16 14 8 7 6 6 7 7 3 2 1 1 0 -0 -0 -1 -1 -0 0 -1 -1 -1
10 10 10 11 11 9 11 12 13 14 14 14 14 13 12 12 13 10 9 12 14 16 12 7 7 6 6 5 5 5 5 4 5 3 3 2 1 2 1 1 -1 -1 -1 -2
6 8 10 12 12 9 9 12 12 14 13 11 14 12 12 14 11 11 14 14 13 7 6 6 6 5 6 5 3 3 4 5 4 4 3 3 2 2 2 1 0 0 -1 -2

GFSNW_925_temp_333.txt.gz
Temp
8 9 9 8 10 9 10 12 14 16 16 13 14 15 21 23 25 26 25 25 25 24 24 24 24 23 23 23 23 23 22 24 23 26 27 29 29 28 25 22 22 22 21 19
8 9 9 9 10 10 10 13 13 16 16 13 14 18 21 23 24 25 26 25 25 24 24 23 23 23 23 23 22 21 22 21 21 22 24 24 25 26 25 24 22 23 21 20
8 8 9 9 9 9 9 11 13 13 13 14 17 19 20 22 24 23 24 25 24 24 24 25 24 24 24 24 23 19 21 23 22 21 22 24 24 25 25 24 22 22 22 23
8 9 9 9 8 9 9 11 15 14 12 13 16 18 20 22 22 23 23 24 23 23 23 24 24 25 23 24 22 22 21 21 22 22 24 24 24 24 24 25 23 22 20 19
8 9 9 9 9 9 9 11 14 16 16 16 16 18 20 21 22 22 22 22 22 22 22 22 21 22 20 20 21 21 21 20 21 21 23 23 23 23 22 22 22 22 19 18
8 8 9 9 9 9 11 16 17 14 16 16 17 17 20 22 23 23 22 21 21 21 20 20 21 20 21 21 22 20 20 19 19 21 22 21 19 21 21 21 20 20 19 18
8 9 9 9 8 10 10 13 14 14 15 17 18 20 20 21 22 22 22 22 21 20 21 22 23 22 22 21 20 21 21 19 19 18 18 15 20 23 22 20 20 19 19 17
8 8 9 9 9 10 8 10 12 13 14 18 19 20 20 21 20 19 19 19 19 18 20 19 19 18 20 20 21 21 20 19 17 14 16 19 19 20 20 20 17 18 16 15
8 8 9 9 10 10 10 11 13 13 13 13 16 18 20 17 18 18 19 18 20 18 17 17 15 13 20 21 21 22 22 20 17 12 14 17 19 20 20 20 15 16 16 14
7 8 9 9 10 10 10 12 13 13 13 14 15 14 16 18 17 16 18 18 18 18 15 17 14 17 21 19 21 21 20 19 18 14 13 17 19 19 20 16 15 14 14 13
8 8 9 10 10 10 11 12 13 13 12 12 14 15 13 14 14 15 16 14 15 15 16 15 15 16 18 20 22 22 20 16 16 16 15 14 18 19 17 16 15 14 13 11
8 8 9 9 9 10 11 12 13 14 12 12 15 15 15 15 14 13 14 15 15 14 14 14 15 16 16 18 17 22 17 18 17 16 16 18 18 17 17 16 16 15 12 10
8 8 9 9 9 10 11 12 13 14 10 10 12 13 15 15 15 15 12 13 14 14 14 13 12 15 14 15 17 18 19 19 17 17 19 16 15 15 15 15 15 13 13 11
8 8 9 9 9 10 11 12 13 14 11 6 10 15 15 15 15 15 15 14 15 15 11 8 8 9 14 14 16 16 17 19 18 17 17 14 14 14 14 14 14 12 11 11
7 8 9 9 9 10 11 11 12 13 11 7 11 14 14 14 15 15 15 15 12 11 10 7 7 12 13 13 13 14 17 17 15 13 15 13 13 14 14 12 12 11 10 10
7 8 8 9 9 11 11 8 12 12 13 9 8 13 14 14 15 15 15 14 12 12 11 11 12 15 14 11 13 17 18 18 18 14 13 12 12 12 12 12 11 11 10 10
7 8 8 9 10 10 9 7 10 12 12 6 7 10 13 14 14 13 11 12 10 10 10 10 11 12 13 9 10 16 17 17 15 14 13 13 13 10 11 11 11 11 10 10
7 7 8 9 9 10 10 10 11 11 12 10 6 9 10 14 12 11 12 9 8 8 9 10 11 12 12 9 15 16 17 16 14 13 13 11 10 10 9 9 9 7 7 8
7 7 8 9 9 9 9 10 10 10 10 6 8 8 8 12 11 11 10 10 7 9 7 10 11 11 9 13 16 16 18 15 12 11 11 10 8 8 8 7 7 6 4 2
7 7 7 3 8 9 10 10 5 4 6 9 7 11 10 10 10 9 8 9 8 8 9 12 8 11 14 15 15 16 14 13 11 9 9 8 8 8 8 8 7 6 3 2
7 6 5 7 8 8 8 5 4 5 5 8 8 11 9 11 9 8 9 9 8 10 11 11 11 11 13 12 12 11 11 11 10 10 10 10 8 7 7 6 4 3 2 0
8 8 8 8 7 5 5 5 6 7 8 8 8 10 10 10 10 7 7 9 8 11 10 8 8 11 12 11 10 8 7 6 5 6 6 8 9 8 5 2 2 1 0 -1
10 9 7 7 6 7 7 7 7 6 9 9 9 8 9 10 9 7 7 7 7 9 8 12 10 12 10 9 8 5 4 3 2 1 1 1 1 2 1 -0 -0 -1 -2 -2
5 4 7 5 6 6 6 8 7 8 9 9 8 9 8 9 8 7 9 9 9 9 9 9 9 8 7 6 5 3 2 1 0 -0 -0 -0 -1 -1 -1 -1 -1 -2 -2 -2
7 7 5 6 7 8 9 9 9 10 11 9 8 8 8 7 8 10 10 10 10 11 9 8 6 6 6 5 5 3 1 1 0 -1 -1 -1 -1 -1 -2 -2 -2 -2 -2 -2
9 10 8 9 8 6 7 9 9 11 10 10 10 10 9 10 8 11 11 11 10 9 7 6 7 7 5 4 4 3 3 2 1 0 0 -0 -0 -1 -1 -2 -2 -2 -1 -1
7 7 10 9 8 7 9 9 9 11 11 9 11 11 10 11 8 10 10 9 7 6 6 6 7 5 5 5 4 4 4 4 3 2 2 1 0 -0 -1 -2 -1 -1 -1 -1

GFSNW_925_temp_336.txt.gz
Temp
7 8 9 9 8 9 10 10 12 15 16 12 10 13 18 20 23 25 25 24 23 23 22 21 22 22 23 21 22 22 22 22 22 26 25 26 25 24 22 20 22 20 19 18
7 8 8 8 8 9 10 10 12 15 15 12 12 15 19 21 21 23 23 24 24 23 23 21 22 22 23 22 21 22 21 20 20 22 23 22 23 24 24 22 19 22 19 18
7 8 8 8 8 9 9 10 12 11 11 10 14 17 18 20 22 23 22 23 22 22 22 23 23 22 23 23 22 18 19 19 20 19 22 22 22 22 22 22 19 20 20 20
7 8 8 8 8 8 9 10 12 12 11 12 14 17 18 19 21 22 22 22 22 22 21 22 22 20 22 21 18 21 19 19 20 21 21 22 21 21 20 20 20 20 19 17
6 7 7 8 8 8 10 11 12 13 13 13 13 15 18 19 21 21 21 21 20 19 18 20 21 21 20 20 20 20 18 19 19 19 21 21 20 19 19 19 19 17 17 16
7 7 8 9 8 9 9 11 13 12 13 13 14 14 19 21 20 21 21 21 20 17 19 20 19 19 19 21 21 19 18 17 17 19 20 19 17 18 18 18 17 19 18 17
7 7 8 8 8 9 10 11 11 12 14 14 15 18 19 20 21 19 18 18 18 19 19 21 21 21 21 20 20 19 19 19 16 16 17 14 19 19 18 17 16 16 15 13
7 7 8 8 8 9 9 10 10 11 13 15 17 19 18 18 16 17 17 18 17 17 19 16 16 15 18 19 20 19 18 16 15 13 14 18 18 18 19 17 16 15 14 13
7 8 8 8 8 8 8 10 11 10 11 12 14 17 17 15 15 15 17 18 17 16 14 15 13 13 17 19 20 20 18 17 15 11 14 17 17 18 18 17 15 14 14 12
7 8 8 8 8 8 8 11 12 12 10 11 13 13 15 15 14 13 16 18 16 15 13 15 12 15 19 18 19 20 17 16 16 12 12 15 18 18 18 16 15 14 14 14
7 8 7 8 8 8 10 12 12 13 9 11 12 12 13 13 13 14 14 13 13 12 14 13 13 15 16 18 20 19 18 15 15 14 14 15 18 18 16 14 14 13 12 11
7 7 7 8 9 10 10 12 13 13 11 11 14 14 14 14 14 12 11 13 13 12 12 12 13 14 14 16 17 17 16 16 15 15 14 15 14 16 15 14 14 13 11 9
7 8 8 9 9 10 11 12 13 14 9 9 11 12 14 15 15 16 12 11 13 13 11 11 11 13 12 13 15 17 17 17 16 15 15 14 14 14 15 15 14 12 10 9
7 8 8 8 9 10 11 12 13 13 8 7 9 14 14 15 15 15 15 14 13 11 8 8 7 9 12 13 14 14 15 16 16 13 13 13 13 14 13 13 11 10 9 9
7 8 8 8 9 10 11 13 12 13 12 7 10 13 14 14 15 15 15 14 11 9 9 5 8 10 12 11 11 13 15 16 14 13 14 12 13 13 11 11 10 10 8 8
7 8 8 9 10 11 13 7 12 12 13 8 8 11 13 14 13 13 11 12 9 9 9 10 10 12 11 8 11 14 15 15 14 14 13 11 11 11 12 10 9 9 8 8
8 8 8 9 10 11 10 7 11 12 13 6 7 9 12 14 12 10 9 10 8 8 8 9 10 10 10 6 8 14 15 14 12 12 12 11 11 10 9 9 9 9 9 8
8 8 8 9 11 10 10 10 11 12 11 8 6 7 10 13 10 9 9 8 6 7 8 8 10 10 9 9 12 14 14 13 12 11 11 10 8 8 7 8 8 6 5 5
7 8 9 10 11 9 9 10 11 12 10 5 6 7 7 10 10 8 8 7 5 6 5 9 9 9 8 12 14 14 13 13 9 10 9 8 7 6 6 6 6 4 2 3
7 9 9 3 8 9 11 11 4 3 4 6 6 7 8 8 9 8 7 6 5 8 7 9 6 9 12 10 11 14 11 11 10 7 7 7 7 7 7 7 6 4 3 1
7 6 5 7 8 9 5 3 4 2 5 5 7 8 8 9 8 6 8 8 6 8 10 9 9 9 11 9 7 7 8 9 9 9 8 8 7 6 5 4 3 3 2 0
8 7 7 7 5 3 4 5 5 4 7 6 7 8 8 9 7 8 5 8 7 10 8 6 7 10 9 7 5 4 4 5 4 6 5 6 6 5 4 2 0 -0 0 0
9 8 6 5 4 4 5 6 5 4 6 6 7 8 8 9 7 6 5 7 7 7 6 12 8 9 8 7 4 3 3 2 2 1 1 1 1 2 1 0 0 -0 -1 -1
5 4 6 4 5 4 5 6 6 5 6 7 7 7 8 6 7 5 9 7 7 6 6 7 8 8 6 4 2 3 1 0 0 -0 -0 -0 -0 -1 -0 -1 -1 -2 -2 -1
6 5 3 5 5 5 5 6 7 7 8 7 7 6 7 5 7 7 10 9 8 8 8 7 5 5 4 3 2 2 1 -0 -0 -1 -1 -1 -1 -1 -2 -2 -2 -2 -2 -1
8 7 5 5 5 3 4 6 7 8 7 7 8 8 7 8 7 9 10 9 9 8 6 5 6 6 5 3 3 2 1 0 -0 -1 -1 -1 -2 -2 -2 -2 -2 -3 -2 -1
7 5 6 5 5 6 5 6 7 10 9 8 8 9 10 7 7 9 9 7 7 5 5 5 5 5 4 3 2 2 2 1 1 -0 -0 -1 -1 -2 -2 -2 -2 -1 -1 -1